Regional Weather Roundup
Issued by NWS

Home | Current Version | Previous Version | Graphics & Text | Print | Product List | Glossary On
Versions: 1 2 3 4 5 6 7 8 9 10 11 12 13 14 15 16 17 18 19 20 21 22 23 24 25 26 27 28 29 30 31 32 33 34 35 36 37 38 39 40 41 42 43 44 45 46 47 48 49 50
000
ASUS43 KDTX 311701
RWRMI
MICHIGAN HOURLY REGIONAL WEATHER ROUNDUP
NATIONAL WEATHER SERVICE DETROIT/PONTIAC MI
100 PM EDT FRI OCT 31 2014

NOTE: "FAIR" INDICATES FEW OR NO CLOUDS BELOW 12,000 FEET WITH NO
SIGNIFICANT WEATHER AND/OR OBSTRUCTION TO VISIBILITY.

MIZ047>049-052>055-059>063-066>070-074>076-081>083-311800-
SOUTHEAST LOWER MICHIGAN

CITY           SKY/WX    TMP DP  RH WIND       PRES   REMARKS
ADRIAN         LGT RAIN  42  38  85 N10       29.90S
ALMA           MIX PCPN  36  34  93 N17G24    30.00R WCI  26
ANN ARBOR      CLOUDY    44  37  76 N9        29.89S
BAD AXE        LGT SNOW  40  39  97 N20G31    29.93R WCI  30
CARO           LGT RAIN  40  38  92 N18G30    29.92R WCI  31
DETROIT CITY   LGT RAIN  46  41  82 NW5       29.88F
DETROIT        LGT RAIN  43  39  86 NW10      29.89S
FLINT          LGT RAIN  43  39  86 N12       29.92R FOG
GROSSE ILE     RAIN      45  39  81 NW8       29.87S
HILLSDALE      DRIZZLE   42  40  95 NW6       29.90S
HOWELL         LGT RAIN  40  38  94 N8        29.90F WCI  34

CITY           SKY/WX    TMP DP  RH WIND       PRES   REMARKS
JACKSON        CLOUDY    42  40  92 N9        29.91R
LAMBERTVILLE   LGT RAIN  43  39  87 N7        29.89F
LANSING        LGT RAIN  40  37  89 N13G21    29.94R FOG     WCI  32
LAPEER         DRIZZLE   41  38  91 N9        29.90S
MASON          LGT RAIN  40  38  93 N8        29.91F
MONROE         LGT RAIN  45  41  87 N7        29.87F
PONTIAC        LGT RAIN  41  37  86 N8        29.88S
PORT HOPE        N/A     42  38  85 N33G44    29.92R
PORT HURON     LGT RAIN  43  43 100 N3        29.88F
TRI CITIES     LGT SNOW  38  33  82 N23G37    29.99R WCI  27
TROY           LGT RAIN  44  39  85 N8        29.90S
SAGINAW HB     DRIZZLE   37  37 100 N22G31    29.95R WCI  27
$$
MIZ043>046-050>051-056>058-064>065-071>073-077>080-311800-
SOUTHWEST LOWER MICHIGAN

CITY           SKY/WX    TMP DP  RH WIND       PRES   REMARKS
BATTLE CREEK   CLOUDY    44  37  76 N8        29.94R
BENTON HARBOR  CLOUDY    39  33  79 N17G32    29.99R WCI  30
BIG RAPIDS     CLOUDY    34  33  99 N15G25    30.05R WCI  24
COLDWATER      CLOUDY    42  37  82 NW8       29.92S
FREMONT        LGT SNOW  34  33  94 N16       30.07R WCI  24
HOLLAND        LGT RAIN  39  33  79 N15G28    30.03R WCI  31
GRAND RAPIDS   LGT RAIN  37  35  92 N13G25    29.99R WCI  29
IONIA          LGT RAIN  37  35  92 N22G30    29.97R WCI  27
KALAMAZOO      CLOUDY    41  35  79 N13       29.95R
LUDINGTON      PTSUNNY   37  31  81 N21G33    30.15R WCI  26
MARSHALL       LGT RAIN  39  37  92 NW6       29.92R WCI  35
MOUNT PLEASANT LGT RAIN  37  31  78 N22G29    30.01R WCI  27
MUSKEGON       SNOW      37  32  82 N18G30    30.08R VSB 1/2 WCI  27
SOUTH HAVEN    CLOUDY    39  35  83 N23G30    30.00R WCI  29
$$
MIZ016>042-311800-
NORTHERN LOWER MICHIGAN

CITY           SKY/WX    TMP DP  RH WIND       PRES   REMARKS
ALPENA         LGT SNOW  32  31  96 N20       30.11R VSB 3/4 WCI  20
BEAVER ISLAND  CLOUDY    35  24  63 N16G25    30.25R WCI  26
BELLAIRE       CLOUDY    35  26  70 N15G30    30.19R WCI  25
CADILLAC       CLOUDY    31  27  84 N14G22    30.08R WCI  21
CHARLEVOIX     CLOUDY    33  24  69 N25G33    30.25R WCI  20
FRANKFORT      CLOUDY    36  29  75 N12G23    30.19R WCI  28
GAYLORD        MIX PCPN  30  25  81 NE15G30   30.12R WCI  19
GRAYLING       CLOUDY    33  28  82 N18G33    30.11R WCI  22
HARBOR SPRINGS PTSUNNY   32  25  76 N12G20    30.21R WCI  23
HOUGHTON LAKE  CLOUDY    34  28  79 N21G37    30.08R WCI  22
MANISTEE       PTSUNNY   36  28  75 N16G28    30.17R WCI  26
OSCODA         LGT SNOW  35  33  95 N26G32    30.03R WCI  22
PELLSTON       CLOUDY    33  26  75 N16       30.22R WCI  23
ROGERS CITY    CLOUDY    34  28  80 N22G31    30.16R WCI  22
TRAVERSE CITY  FLURRIES  36  25  64 NE24G37   30.17R WCI  24
$$
MIZ007>008-015-311800-
EASTERN UPPER MICHIGAN

CITY           SKY/WX    TMP DP  RH WIND       PRES   REMARKS
KINROSS        PTSUNNY   32  23  69 N21G29    30.22S WCI  20
MACKINAC ISLAN CLOUDY    34  25  69 N14G32    30.22R WCI  24
NEWBERRY       CLOUDY    32  23  69 N17G31    30.27S WCI  21
S. S. MARIE    CLOUDY    33  20  58 N16G25    30.25R WCI  23
MUNISING         N/A     37  25  61 N30G36    30.35R WCI  24
$$
MIZ004>006-011>014-085-311800-
CENTRAL UPPER MICHIGAN

CITY           SKY/WX    TMP DP  RH WIND       PRES   REMARKS
MANISTIQUE     PTSUNNY   35  23  62 N22G31    30.29R WCI  23
ESCANABA       PTSUNNY   34  25  69 N16G26    30.33R WCI  23
MENOMINEE      PTSUNNY   37  21  52 N22G35    30.32R WCI  27
SAWYER-GWINN   PTSUNNY   30  21  69 N24G32    30.34R WCI  16
$$
MIZ001>003-009>011-084-311800-
WESTERN UPPER MICHIGAN

CITY           SKY/WX    TMP DP  RH WIND       PRES   REMARKS
IRON MOUNTAIN  CLOUDY    33  23  66 N24G31    30.36R WCI  20
HOUGHTON       FLURRIES  31  22  69 N15G23    30.44R WCI  20
COPPER HARBOR    N/A     36  24  62 NE22G30   30.44R WCI  25
IRONWOOD       CLOUDY    30  27  86 N5        30.46S WCI  25
$$

ABBREVIATIONS USED IN REMARKS
   TC - TEMPERATURE IN CELSIUS
  WCI - WIND CHILL INDEX
   HX - HEAT INDEX
  VSB - VISIBILITY




USA.gov is the U.S. government's official web portal to all federal, state and local government web resources and services.